Home > Weather > Gainesville > Past weeks

Flag for USA Past Weather in Gainesville, Florida, USA — Yesterday and Last 2 Weeks

Now
93 °F

Sunny.


Feels Like: 98 °F
Forecast: 72 / 93 °F
Wind: 7 mph from East

Location: Gainesville Regional Airport

Current Time: Jul 24, 2016 at 2:31:20 PM

Latest Report: Jul 24, 2016 at 1:53 PM


Visibility: 10 mi

Pressure: 30.02 "Hg

Humidity: 46%

Dew Point: 69 °F

Location of GainesvilleLocation

Past Weather in Gainesville — Graph

°F

Gainesville Temperature Yesterday

Maximum temperature yesterday: 94 °F (at 4:53 PM)
Minimum temperature yesterday: 71 °F (at 6:53 AM)
Average temperature yesterday: 83 °F

High & Low Weather Summary for the Past Weeks

 TemperatureHumidityPressure
High97 °F (Jul 12, 2:53 PM)97% (Jul 14, 1:53 AM)30.25 "Hg (Jul 14, 1:53 AM)
Low71 °F (Jul 16, 4:53 AM)40% (Jul 10, 4:53 PM)29.95 "Hg (Jul 23, 5:53 PM)
Average82 °F75%30.09 "Hg
* Reported Jul 9 12:53 PM — Jul 24 12:53 PM, Gainesville, Weather by CustomWeather, © 2016

Note: Actual official high and low records may vary slightly from our data, if they occured in-between our weather recording intervals... More about our weather records

Advertising

Gainesville Weather History for the Previous 24 Hours

Scroll right to see more
 ConditionsComfort  
Time TempWeatherWind HumidityBarometerVisibility
12:53 PM
Sun, Jul 24
93 °FScattered clouds.3 mph42%30.03 "Hg10 mi
11:53 AM91 °FPartly sunny.3 mph57%30.04 "Hg10 mi
10:53 AM88 °FSunny.No wind63%30.04 "Hg10 mi
9:53 AM87 °FSunny.3 mph67%30.05 "Hg10 mi
8:53 AM81 °FSunny.No wind77%30.05 "Hg10 mi
7:53 AM75 °FSunny.No wind88%30.03 "Hg10 mi
6:53 AM72 °FClear.No wind91%30.03 "Hg10 mi
5:53 AM71 °FClear.No wind90%30.01 "Hg10 mi
4:53 AM72 °FClear.No wind91%30.00 "Hg10 mi
3:53 AM72 °FClear.No wind91%30.01 "Hg10 mi
2:53 AM73 °FPassing clouds.No wind88%30.01 "Hg10 mi
1:53 AM73 °FPassing clouds.No wind88%30.03 "Hg10 mi
12:53 AM75 °FClear.3 mph79%30.03 "Hg10 mi
11:53 PM
Sat, Jul 23
77 °FClear.No wind74%30.03 "Hg10 mi
10:53 PM78 °FClear.7 mph76%30.03 "Hg10 mi
9:53 PM80 °FClear.6 mph69%30.01 "Hg10 mi
8:53 PM84 °FScattered clouds.8 mph65%29.98 "Hg10 mi
7:53 PM88 °FScattered clouds.10 mph55%29.96 "Hg10 mi
6:53 PM93 °FSunny.13 mph41%29.95 "Hg10 mi
5:53 PM94 °FSunny.No wind40%29.95 "Hg10 mi
4:53 PM94 °FPassing clouds.7 mph44%29.96 "Hg10 mi
3:53 PM93 °FPartly sunny.3 mph44%29.97 "Hg10 mi
2:53 PM92 °FSunny.10 mph47%29.99 "Hg10 mi
Weather by CustomWeather, © 2016

See weather overviewHow to use our weather pages